N777AS YBRM-YPTN

Flight info

Callsign N777AS
Flight time 1h 22m
Altitude 37000
Route BRM J93 KU/N0372F190 W226 TN
Aircraft B772/H-SDE2E3FGHIJ5LORVWXY/LB1D1

Departure

Time 2026-05-06 22:13
Airport Broome International Airport (YBRM)

Arrival

Time 2026-05-06 23:35
Airport Tindal Airport (YPTN)
Time Latitude Longitude Altitude Speed Heading
2026-05-06 22:04 -17.95268 122.23321 42 ft 0 kts 61°
2026-05-06 22:07 -17.95273 122.23312 41 ft 4 kts 59°
2026-05-06 22:08 -17.95286 122.23290 37 ft 3 kts 45°
2026-05-06 22:08 -17.95301 122.23279 39 ft 3 kts 21°
2026-05-06 22:08 -17.95313 122.23275 37 ft 2 kts 18°
2026-05-06 22:08 -17.95322 122.23272 40 ft 0 kts 17°
2026-05-06 22:09 -17.95309 122.23276 37 ft 8 kts 17°
2026-05-06 22:09 -17.95248 122.23295 42 ft 9 kts 16°
2026-05-06 22:09 -17.95194 122.23327 41 ft 9 kts 52°
2026-05-06 22:09 -17.95141 122.23375 41 ft 8 kts 16°
2026-05-06 22:10 -17.95076 122.23385 39 ft 15 kts 349°
2026-05-06 22:10 -17.95012 122.23257 43 ft 28 kts 284°
2026-05-06 22:10 -17.94961 122.23059 46 ft 28 kts 286°
2026-05-06 22:10 -17.94906 122.22851 49 ft 32 kts 285°
2026-05-06 22:11 -17.94842 122.22609 57 ft 37 kts 285°
2026-05-06 22:11 -17.94775 122.22353 54 ft 35 kts 286°
2026-05-06 22:11 -17.94711 122.22116 60 ft 32 kts 285°
2026-05-06 22:11 -17.94654 122.21899 60 ft 30 kts 285°
2026-05-06 22:12 -17.94600 122.21694 60 ft 23 kts 285°
2026-05-06 22:12 -17.94586 122.21592 57 ft 4 kts 322°
2026-05-06 22:12 -17.94571 122.21601 58 ft 3 kts 62°
2026-05-06 22:12 -17.94585 122.21643 58 ft 17 kts 107°
2026-05-06 22:13 -17.94681 122.22004 55 ft 90 kts 105°
2026-05-06 22:13 -17.94911 122.22884 64 ft 155 kts 104°
2026-05-06 22:13 -17.95190 122.23977 784 ft 151 kts 105°
2026-05-06 22:13 -17.95308 122.25082 1463 ft 158 kts 77°
2026-05-06 22:14 -17.94788 122.26210 1762 ft 187 kts 61°
2026-05-06 22:14 -17.94088 122.27476 1963 ft 214 kts 62°
2026-05-06 22:14 -17.93232 122.28872 2198 ft 238 kts 56°
2026-05-06 22:14 -17.92289 122.30344 2752 ft 248 kts 59°
2026-05-06 22:15 -17.91420 122.31915 3351 ft 256 kts 63°
2026-05-06 22:15 -17.90626 122.33631 4025 ft 260 kts 67°
2026-05-06 22:15 -17.89945 122.35370 4707 ft 264 kts 70°
2026-05-06 22:15 -17.89322 122.37208 5301 ft 270 kts 72°
2026-05-06 22:16 -17.88760 122.39095 6006 ft 272 kts 74°
2026-05-06 22:16 -17.88241 122.41023 6624 ft 277 kts 76°
2026-05-06 22:16 -17.87753 122.42995 7215 ft 280 kts 76°
2026-05-06 22:16 -17.87287 122.45000 7784 ft 285 kts 76°
2026-05-06 22:17 -17.86833 122.47045 8339 ft 289 kts 77°
2026-05-06 22:17 -17.86389 122.49120 8923 ft 293 kts 76°
2026-05-06 22:17 -17.85949 122.51224 9490 ft 296 kts 77°
2026-05-06 22:17 -17.85660 122.52630 9886 ft 298 kts 77°
2026-05-06 22:18 -17.85075 122.55500 10304 ft 314 kts 77°
2026-05-06 22:18 -17.84764 122.57039 10408 ft 325 kts 77°
2026-05-06 22:18 -17.84134 122.60181 10892 ft 339 kts 77°
2026-05-06 22:18 -17.83645 122.62630 11410 ft 346 kts 77°
2026-05-06 22:19 -17.83309 122.64315 11876 ft 349 kts 77°
2026-05-06 22:19 -17.82816 122.66793 12604 ft 353 kts 77°
2026-05-06 22:19 -17.82303 122.69370 13341 ft 359 kts 77°
2026-05-06 22:19 -17.81788 122.71957 14021 ft 366 kts 77°
2026-05-06 22:20 -17.81271 122.74556 14654 ft 371 kts 77°
2026-05-06 22:20 -17.80739 122.77226 15318 ft 376 kts 77°
2026-05-06 22:20 -17.80199 122.79933 15983 ft 381 kts 77°
2026-05-06 22:20 -17.79652 122.82677 16620 ft 386 kts 77°
2026-05-06 22:21 -17.79096 122.85458 17255 ft 392 kts 77°
2026-05-06 22:21 -17.78532 122.88284 17887 ft 397 kts 77°
2026-05-06 22:21 -17.77966 122.91111 18481 ft 403 kts 77°
2026-05-06 22:21 -17.77386 122.94008 19004 ft 408 kts 77°
2026-05-06 22:22 -17.76798 122.96945 19523 ft 413 kts 77°
2026-05-06 22:22 -17.76202 122.99915 20031 ft 419 kts 77°
2026-05-06 22:22 -17.75598 123.02928 20533 ft 424 kts 77°
2026-05-06 22:22 -17.74987 123.05970 21030 ft 429 kts 77°
2026-05-06 22:23 -17.74368 123.09049 21519 ft 434 kts 77°
2026-05-06 22:23 -17.73739 123.12175 21991 ft 439 kts 76°
2026-05-06 22:23 -17.73103 123.15332 22465 ft 444 kts 76°
2026-05-06 22:23 -17.72461 123.18519 22925 ft 449 kts 76°
2026-05-06 22:24 -17.71809 123.21753 23401 ft 454 kts 76°
2026-05-06 22:24 -17.71160 123.24965 23816 ft 459 kts 76°
2026-05-06 22:24 -17.70495 123.28256 24211 ft 464 kts 76°
2026-05-06 22:24 -17.69822 123.31586 24611 ft 467 kts 76°
2026-05-06 22:25 -17.69144 123.34938 25010 ft 472 kts 76°
2026-05-06 22:25 -17.68459 123.38318 25413 ft 476 kts 76°
2026-05-06 22:25 -17.67769 123.41721 25804 ft 480 kts 76°
2026-05-06 22:25 -17.67071 123.45159 26192 ft 484 kts 76°
2026-05-06 22:26 -17.66367 123.48628 26574 ft 488 kts 76°
2026-05-06 22:26 -17.65656 123.52122 26964 ft 492 kts 76°
2026-05-06 22:26 -17.64945 123.55619 27351 ft 496 kts 76°
2026-05-06 22:26 -17.64222 123.59167 27749 ft 500 kts 76°
2026-05-06 22:27 -17.63491 123.62754 28133 ft 504 kts 76°
2026-05-06 22:27 -17.62752 123.66371 28514 ft 509 kts 76°
2026-05-06 22:27 -17.62008 123.70014 28904 ft 512 kts 76°
2026-05-06 22:27 -17.61259 123.73680 29325 ft 516 kts 76°
2026-05-06 22:28 -17.60502 123.77380 29725 ft 519 kts 76°
2026-05-06 22:28 -17.59740 123.81098 30096 ft 523 kts 76°
2026-05-06 22:28 -17.58821 123.84793 30414 ft 526 kts 70°
2026-05-06 22:28 -17.57616 123.88360 30744 ft 526 kts 63°
2026-05-06 22:29 -17.56103 123.91857 31108 ft 527 kts 61°
2026-05-06 22:29 -17.54534 123.95340 31438 ft 529 kts 61°
2026-05-06 22:29 -17.52947 123.98831 31734 ft 533 kts 61°
2026-05-06 22:29 -17.51350 124.02358 32051 ft 536 kts 61°
2026-05-06 22:30 -17.49763 124.05890 32377 ft 539 kts 62°
2026-05-06 22:30 -17.48167 124.09468 32696 ft 541 kts 62°
2026-05-06 22:30 -17.46577 124.13054 32987 ft 544 kts 62°
2026-05-06 22:30 -17.44983 124.16656 33293 ft 547 kts 62°
2026-05-06 22:31 -17.43382 124.20279 33609 ft 549 kts 62°
2026-05-06 22:31 -17.41768 124.23928 33895 ft 551 kts 62°
2026-05-06 22:31 -17.40153 124.27575 34171 ft 553 kts 62°
2026-05-06 22:31 -17.38530 124.31235 34424 ft 555 kts 62°
2026-05-06 22:32 -17.36902 124.34903 34690 ft 557 kts 62°
2026-05-06 22:32 -17.35268 124.38582 34964 ft 558 kts 62°
2026-05-06 22:32 -17.33630 124.42265 35220 ft 559 kts 62°
2026-05-06 22:32 -17.31988 124.45957 35442 ft 561 kts 62°
2026-05-06 22:33 -17.30332 124.49675 35635 ft 563 kts 62°
2026-05-06 22:33 -17.28678 124.53389 35871 ft 564 kts 62°
2026-05-06 22:33 -17.27039 124.57068 36150 ft 564 kts 62°
2026-05-06 22:33 -17.25389 124.60771 36492 ft 562 kts 62°
2026-05-06 22:34 -17.23734 124.64482 36818 ft 560 kts 62°
2026-05-06 22:34 -17.22088 124.68170 36998 ft 562 kts 62°
2026-05-06 22:34 -17.18757 124.75621 37053 ft 566 kts 62°
2026-05-06 22:35 -17.15451 124.83016 37043 ft 557 kts 62°
2026-05-06 22:35 -17.12170 124.90344 37047 ft 556 kts 62°
2026-05-06 22:36 -17.08899 124.97636 37054 ft 555 kts 62°
2026-05-06 22:36 -17.05619 125.04940 37063 ft 555 kts 62°
2026-05-06 22:37 -17.02337 125.12243 37068 ft 555 kts 62°
2026-05-06 22:37 -16.99053 125.19541 37069 ft 555 kts 62°
2026-05-06 22:38 -16.95763 125.26846 37067 ft 555 kts 62°
2026-05-06 22:38 -16.92474 125.34139 37077 ft 555 kts 61°
2026-05-06 22:39 -16.89184 125.41428 37076 ft 554 kts 61°
2026-05-06 22:39 -16.85896 125.48703 37077 ft 553 kts 61°
2026-05-06 22:40 -16.82608 125.55968 37079 ft 552 kts 61°
2026-05-06 22:40 -16.79350 125.63162 37079 ft 551 kts 61°
2026-05-06 22:41 -16.74440 125.73985 37081 ft 549 kts 61°
2026-05-06 22:42 -16.71167 125.81190 37079 ft 548 kts 61°
2026-05-06 22:42 -16.67902 125.88371 37083 ft 547 kts 61°
2026-05-06 22:43 -16.64637 125.95542 37089 ft 546 kts 61°
2026-05-06 22:43 -16.61402 126.02640 37090 ft 546 kts 61°
2026-05-06 22:44 -16.58141 126.09788 37091 ft 545 kts 61°
2026-05-06 22:44 -16.54880 126.16928 37088 ft 545 kts 61°
2026-05-06 22:45 -16.51618 126.24064 37093 ft 544 kts 61°
2026-05-06 22:45 -16.48337 126.31231 37107 ft 554 kts 61°
2026-05-06 22:46 -16.45007 126.38499 37105 ft 561 kts 61°
2026-05-06 22:46 -16.41960 126.46005 37108 ft 567 kts 70°
2026-05-06 22:47 -16.39736 126.53915 37101 ft 568 kts 72°
2026-05-06 22:47 -16.37601 126.61811 37095 ft 565 kts 72°
2026-05-06 22:48 -16.35429 126.69658 37097 ft 563 kts 71°
2026-05-06 22:48 -16.33224 126.77467 37091 ft 561 kts 71°
2026-05-06 22:49 -16.31018 126.85235 37092 ft 558 kts 71°
2026-05-06 22:49 -16.28821 126.92970 37097 ft 556 kts 71°
2026-05-06 22:50 -16.26628 127.00699 37096 ft 555 kts 71°
2026-05-06 22:50 -16.24453 127.08354 37095 ft 555 kts 71°
2026-05-06 22:51 -16.22262 127.16052 37097 ft 555 kts 71°
2026-05-06 22:51 -16.20067 127.23752 37102 ft 555 kts 71°
2026-05-06 22:52 -16.17865 127.31463 37099 ft 556 kts 71°
2026-05-06 22:52 -16.15653 127.39197 37101 ft 557 kts 71°
2026-05-06 22:53 -16.13439 127.46932 37100 ft 558 kts 71°
2026-05-06 22:53 -16.11233 127.54624 37094 ft 558 kts 70°
2026-05-06 22:54 -16.09013 127.62357 37099 ft 558 kts 70°
2026-05-06 22:54 -16.06792 127.70077 37092 ft 557 kts 70°
2026-05-06 22:55 -16.04564 127.77814 37099 ft 557 kts 70°
2026-05-06 22:55 -16.02340 127.85523 37100 ft 556 kts 70°
2026-05-06 22:56 -16.00134 127.93163 37100 ft 555 kts 70°
2026-05-06 22:56 -15.97901 128.00883 37098 ft 554 kts 70°
2026-05-06 22:57 -15.95693 128.08502 37104 ft 554 kts 70°
2026-05-06 22:57 -15.93469 128.16168 37091 ft 553 kts 70°
2026-05-06 22:58 -15.91243 128.23828 37100 ft 553 kts 70°
2026-05-06 22:58 -15.89017 128.31482 37088 ft 553 kts 70°
2026-05-06 22:59 -15.86789 128.39128 37095 ft 553 kts 70°
2026-05-06 22:59 -15.84560 128.46767 37082 ft 552 kts 70°
2026-05-06 23:00 -15.82331 128.54395 37082 ft 551 kts 70°
2026-05-06 23:00 -15.80101 128.62018 37078 ft 551 kts 70°
2026-05-06 23:01 -15.77872 128.69630 37067 ft 550 kts 70°
2026-05-06 23:01 -15.75542 128.77134 37074 ft 548 kts 68°
2026-05-06 23:02 -15.73007 128.84597 37080 ft 547 kts 67°
2026-05-06 23:02 -15.70464 128.92046 37082 ft 547 kts 67°
2026-05-06 23:03 -15.67956 128.99510 37079 ft 546 kts 68°
2026-05-06 23:03 -15.65472 129.06954 37085 ft 546 kts 68°
2026-05-06 23:04 -15.63004 129.14348 37081 ft 545 kts 68°
2026-05-06 23:04 -15.60519 129.21772 37091 ft 544 kts 68°
2026-05-06 23:05 -15.58029 129.29196 37089 ft 544 kts 68°
2026-05-06 23:05 -15.55963 129.35347 37084 ft 544 kts 67°
2026-05-06 23:06 -15.53478 129.42738 37076 ft 543 kts 68°
2026-05-06 23:06 -15.50991 129.50128 37091 ft 542 kts 67°
2026-05-06 23:07 -15.48505 129.57505 37084 ft 541 kts 67°
2026-05-06 23:07 -15.46021 129.64869 37080 ft 541 kts 67°
2026-05-06 23:08 -15.43536 129.72226 37084 ft 540 kts 67°
2026-05-06 23:08 -15.41066 129.79529 37086 ft 539 kts 67°
2026-05-06 23:09 -15.38583 129.86863 37085 ft 534 kts 67°
2026-05-06 23:09 -15.37370 129.90453 36924 ft 524 kts 67°
2026-05-06 23:09 -15.36172 129.93991 36562 ft 517 kts 67°
2026-05-06 23:09 -15.34985 129.97491 36190 ft 512 kts 67°
2026-05-06 23:10 -15.33809 130.00954 35811 ft 507 kts 67°
2026-05-06 23:10 -15.32641 130.04391 35412 ft 502 kts 67°
2026-05-06 23:10 -15.31485 130.07791 35013 ft 498 kts 67°
2026-05-06 23:10 -15.30337 130.11165 34621 ft 494 kts 67°
2026-05-06 23:11 -15.29197 130.14511 34207 ft 491 kts 67°
2026-05-06 23:11 -15.28064 130.17837 33767 ft 488 kts 67°
2026-05-06 23:11 -15.26957 130.21089 33351 ft 484 kts 67°
2026-05-06 23:11 -15.25839 130.24370 32948 ft 479 kts 67°
2026-05-06 23:12 -15.24728 130.27626 32934 ft 483 kts 67°
2026-05-06 23:12 -15.23590 130.30949 32903 ft 495 kts 67°
2026-05-06 23:12 -15.22425 130.34350 32944 ft 506 kts 67°
2026-05-06 23:13 -15.20036 130.41333 33104 ft 522 kts 67°
2026-05-06 23:13 -15.17571 130.48541 33104 ft 539 kts 67°
2026-05-06 23:14 -15.15039 130.55945 33096 ft 551 kts 67°
2026-05-06 23:14 -15.12470 130.63449 33088 ft 554 kts 67°
2026-05-06 23:14 -15.11172 130.67232 32242 ft 562 kts 67°
2026-05-06 23:15 -15.09863 130.71046 31303 ft 562 kts 67°
2026-05-06 23:15 -15.08567 130.74821 30309 ft 563 kts 67°
2026-05-06 23:15 -15.07258 130.78632 29434 ft 558 kts 67°
2026-05-06 23:15 -15.05970 130.82384 28689 ft 550 kts 67°
2026-05-06 23:16 -15.04697 130.86087 27988 ft 541 kts 67°
2026-05-06 23:16 -15.03441 130.89733 27312 ft 534 kts 67°
2026-05-06 23:16 -15.02201 130.93332 26647 ft 527 kts 67°
2026-05-06 23:16 -15.00961 130.96861 25974 ft 520 kts 65°
2026-05-06 23:17 -14.99509 131.00254 25309 ft 511 kts 60°
2026-05-06 23:17 -14.97947 131.03534 24637 ft 505 kts 60°
2026-05-06 23:17 -14.96389 131.06775 23967 ft 500 kts 60°
2026-05-06 23:17 -14.94852 131.09977 23224 ft 496 kts 60°
2026-05-06 23:18 -14.93346 131.13128 22511 ft 490 kts 60°
2026-05-06 23:18 -14.91854 131.16266 21851 ft 483 kts 60°
2026-05-06 23:18 -14.90386 131.19365 21203 ft 477 kts 60°
2026-05-06 23:18 -14.88937 131.22429 20575 ft 471 kts 61°
2026-05-06 23:19 -14.87504 131.25459 19960 ft 466 kts 61°
2026-05-06 23:19 -14.86094 131.28441 19328 ft 462 kts 61°
2026-05-06 23:19 -14.84680 131.31427 18730 ft 457 kts 61°
2026-05-06 23:19 -14.83288 131.34367 18085 ft 453 kts 62°
2026-05-06 23:20 -14.81909 131.37279 17454 ft 448 kts 62°
2026-05-06 23:20 -14.80568 131.40107 16869 ft 442 kts 62°
2026-05-06 23:20 -14.79202 131.42988 16291 ft 437 kts 62°
2026-05-06 23:20 -14.77889 131.45755 15740 ft 431 kts 62°
2026-05-06 23:21 -14.76576 131.48522 15199 ft 426 kts 63°
2026-05-06 23:21 -14.75277 131.51257 14653 ft 422 kts 63°
2026-05-06 23:21 -14.73990 131.53968 14104 ft 418 kts 63°
2026-05-06 23:21 -14.72713 131.56656 13511 ft 415 kts 63°
2026-05-06 23:22 -14.71448 131.59318 12980 ft 409 kts 63°
2026-05-06 23:22 -14.70195 131.61953 12408 ft 406 kts 63°
2026-05-06 23:22 -14.68973 131.64524 11891 ft 402 kts 63°
2026-05-06 23:22 -14.67744 131.67109 11351 ft 398 kts 63°
2026-05-06 23:23 -14.66536 131.69649 11025 ft 389 kts 63°
2026-05-06 23:23 -14.65358 131.72122 10785 ft 378 kts 63°
2026-05-06 23:23 -14.64216 131.74521 10604 ft 366 kts 63°
2026-05-06 23:23 -14.63113 131.76836 10439 ft 353 kts 63°
2026-05-06 23:24 -14.62047 131.79075 10296 ft 342 kts 63°
2026-05-06 23:24 -14.61013 131.81246 10152 ft 331 kts 63°
2026-05-06 23:24 -14.60025 131.83319 10008 ft 320 kts 63°
2026-05-06 23:24 -14.59084 131.85292 9742 ft 294 kts 63°
2026-05-06 23:25 -14.58180 131.87184 9410 ft 292 kts 64°
2026-05-06 23:25 -14.57286 131.89056 9104 ft 290 kts 64°
2026-05-06 23:25 -14.56397 131.90919 8801 ft 288 kts 64°
2026-05-06 23:25 -14.56098 131.91545 8690 ft 287 kts 65°
2026-05-06 23:26 -14.55965 131.91824 8640 ft 287 kts 65°
2026-05-06 23:26 -14.55131 131.93570 8354 ft 285 kts 65°
2026-05-06 23:26 -14.54259 131.95393 8066 ft 282 kts 66°
2026-05-06 23:26 -14.53396 131.97200 7775 ft 281 kts 66°
2026-05-06 23:27 -14.52537 131.99001 7482 ft 279 kts 66°
2026-05-06 23:27 -14.51676 132.00804 7185 ft 278 kts 66°
2026-05-06 23:27 -14.50826 132.02583 6889 ft 276 kts 66°
2026-05-06 23:27 -14.49980 132.04353 6611 ft 275 kts 66°
2026-05-06 23:28 -14.49132 132.06127 6298 ft 273 kts 67°
2026-05-06 23:28 -14.48294 132.07880 6006 ft 271 kts 67°
2026-05-06 23:28 -14.47463 132.09615 5715 ft 269 kts 67°
2026-05-06 23:28 -14.46638 132.11342 5434 ft 267 kts 66°
2026-05-06 23:29 -14.45832 132.13029 5161 ft 264 kts 66°
2026-05-06 23:29 -14.45017 132.14728 4891 ft 262 kts 66°
2026-05-06 23:29 -14.44217 132.16401 4593 ft 261 kts 66°
2026-05-06 23:29 -14.43411 132.18083 4299 ft 259 kts 67°
2026-05-06 23:30 -14.42636 132.19695 4061 ft 239 kts 68°
2026-05-06 23:30 -14.41919 132.21188 3945 ft 227 kts 68°
2026-05-06 23:30 -14.41234 132.22616 3852 ft 217 kts 68°
2026-05-06 23:30 -14.40581 132.23977 3763 ft 207 kts 69°
2026-05-06 23:31 -14.40182 132.25326 3640 ft 189 kts 97°
2026-05-06 23:31 -14.40626 132.26572 3522 ft 186 kts 122°
2026-05-06 23:31 -14.41389 132.27672 3271 ft 193 kts 128°
2026-05-06 23:31 -14.42062 132.28461 3086 ft 190 kts 129°
2026-05-06 23:32 -14.42964 132.29439 2819 ft 186 kts 133°
2026-05-06 23:32 -14.43907 132.30320 2487 ft 177 kts 136°
2026-05-06 23:32 -14.44797 132.31119 2215 ft 161 kts 136°
2026-05-06 23:32 -14.45602 132.31841 1979 ft 146 kts 136°
2026-05-06 23:33 -14.46315 132.32481 1782 ft 126 kts 136°
2026-05-06 23:33 -14.46947 132.33051 1590 ft 119 kts 137°
2026-05-06 23:33 -14.47598 132.33638 1413 ft 131 kts 136°
2026-05-06 23:33 -14.48293 132.34263 1217 ft 131 kts 138°
2026-05-06 23:34 -14.48991 132.34889 1007 ft 133 kts 137°
2026-05-06 23:34 -14.49689 132.35517 804 ft 135 kts 137°
2026-05-06 23:34 -14.50390 132.36148 599 ft 132 kts 138°
2026-05-06 23:34 -14.51082 132.36766 529 ft 133 kts 138°
2026-05-06 23:35 -14.51763 132.37375 430 ft 120 kts 138°
2026-05-06 23:35 -14.52302 132.37857 433 ft 81 kts 139°
2026-05-06 23:35 -14.52615 132.38137 435 ft 37 kts 139°
2026-05-06 23:35 -14.52762 132.38269 434 ft 27 kts 141°
2026-05-06 23:36 -14.52904 132.38392 432 ft 27 kts 139°
2026-05-06 23:36 -14.53041 132.38519 430 ft 19 kts 132°
2026-05-06 23:36 -14.53027 132.38618 433 ft 15 kts 50°
2026-05-06 23:36 -14.52978 132.38663 433 ft 1 kts 16°
2026-05-06 23:37 -14.52949 132.38644 431 ft 17 kts 316°
2026-05-06 23:37 -14.52788 132.38497 428 ft 35 kts 319°
2026-05-06 23:37 -14.52606 132.38336 432 ft 33 kts 319°
2026-05-06 23:37 -14.52437 132.38184 433 ft 31 kts 321°
2026-05-06 23:38 -14.52258 132.38024 433 ft 35 kts 319°
2026-05-06 23:38 -14.52080 132.37863 428 ft 33 kts 319°
2026-05-06 23:38 -14.51910 132.37712 433 ft 31 kts 319°
2026-05-06 23:38 -14.51750 132.37570 433 ft 30 kts 319°
2026-05-06 23:39 -14.51593 132.37430 434 ft 30 kts 319°
2026-05-06 23:39 -14.51436 132.37288 430 ft 30 kts 318°
2026-05-06 23:39 -14.51278 132.37146 435 ft 30 kts 319°
2026-05-06 23:39 -14.51151 132.37025 432 ft 16 kts 294°
2026-05-06 23:40 -14.51201 132.36923 431 ft 17 kts 230°
2026-05-06 23:40 -14.51277 132.36833 428 ft 17 kts 228°
2026-05-06 23:40 -14.51352 132.36742 432 ft 17 kts 241°
2026-05-06 23:40 -14.51327 132.36629 433 ft 17 kts 308°
2026-05-06 23:41 -14.51233 132.36606 435 ft 15 kts 316°
2026-05-06 23:41 -14.51201 132.36576 431 ft 0 kts 319°